292  
FPUS83 KFGF 010031  
OPUFGF  
PRAIRIE TO PINES WEATHER ROUNDUP  
NATIONAL WEATHER SERVICE EASTERN NORTH DAKOTA/GRAND FORKS ND  
700 PM CDT SUN MAY 31 2020  
 
**SATELLITE DATA USED TO AUGMENT SKY COVER AT AUTOMATED STATIONS**  
***** WEATHER ACROSS EASTERN NORTH DAKOTA *****  
 
CITY SKY/WX TMP DP RH WIND PRES REMARKS  
GRAND FORKS PTSUNNY 79 46 31 S14G28 29.92F  
6HR MIN TEMP: 73; 6HR MAX TEMP: 81;  
 
GRND FORKS AFB FAIR 78 49 35 S17 29.92F  
GRND FORKS NWS N/A 80 52 37 SE22 29.87F  
BUXTON NOT AVBL  
DEVILS LAKE FAIR 75 53 46 SE15G23 29.90F  
6HR MIN TEMP: 69; 6HR MAX TEMP: 77;  
 
FARGO FAIR 81 49 32 S18G29 29.94F  
6HR MIN TEMP: 76; 6HR MAX TEMP: 84;  
 
WAHPETON ARPT N/A 77 46 33 S22G29 29.96F  

 
 
***** WEATHER ACROSS CENTRAL AND WESTERN NORTH DAKOTA *****  
 
CITY SKY/WX TMP DP RH WIND PRES REMARKS  
JAMESTOWN FAIR 78 57 48 S18G29 29.89F  
6HR MIN TEMP: 71; 6HR MAX TEMP: 79;  
 
BISMARCK FAIR 81 60 48 SE23G33 29.81F  
6HR MIN TEMP: 73; 6HR MAX TEMP: 83;  
 
MINOT FAIR 82 55 39 SE29G40 29.76F  
6HR MIN TEMP: 72; 6HR MAX TEMP: 83;  
 
MINOT AFB FAIR 82 57 43 S24G32 29.75F  
6HR MIN TEMP: 72; 6HR MAX TEMP: 82;  
 
GARRISON N/A 80 58 46 S21G30 29.77F  
6HR MIN TEMP: 74; 6HR MAX TEMP: 83;  
 
WILLISTON NOT AVBL  
DICKINSON FAIR 78 60 53 S20G30 29.76F  
6HR MIN TEMP: 75; 6HR MAX TEMP: 82;  
 
HETTINGER FAIR 75 60 59 SE21G30 29.79F  
6HR MIN TEMP: 72; 6HR MAX TEMP: 77;  
 

 
 
***** OTHER OBSERVATIONS NORTHEAST NORTH DAKOTA *****  
 
CITY SKY/WX TMP DP RH WIND PRES REMARKS  
WALHALLA FAIR 77 48 36 S15 29.89F  
LANGDON FAIR 77 50 38 S23 29.90F  
CAVALIER FAIR 77 45 31 SE9G21 29.89F  
GRAFTON FAIR 77 48 36 S14G23 29.92F  
CANDO FAIR 75 -35 1 SE24G31 29.89F  
FORT TOTTEN N/A 76 51 41 S14 29.95  
ROLLA FAIR 73 50 43 S22G32 29.87F  
RUGBY FAIR 77 54 44 SE25 29.82F  
***** THE ABOVE OBSERVATIONS ARE NON NWS ARE NOT QUALITY  
CONTROLLED AND MAY MIS-REPORT RAIN FOR SNOW...  

 
 
***** OTHER OBSERVATIONS SOUTHEAST NORTH DAKOTA *****  
 
CITY SKY/WX TMP DP RH WIND PRES REMARKS  
COOPERSTOWN FAIR 77 52 41 SE21 29.91F  
VALLEY CITY FAIR 77 57 50 SE21G30 29.93F  
OAKES CLOUDY 77 59 53 SE21 29.92F  
GWINNER CLEAR 75 57 53 SE21 29.94F  
SHEYENNE NWR N/A 78 56 46 S14 29.95S  
BUFFALO NOT AVBL  
WYNDMERE NOT AVBL  
***** THE ABOVE OBSERVATIONS ARE NON NWS ARE NOT QUALITY  
CONTROLLED AND MAY MIS-REPORT RAIN FOR SNOW...  

 
 
***** WEATHER ACROSS NORTHERN MINNESOTA *****  
 
CITY SKY/WX TMP DP RH WIND PRES REMARKS  
FLAG ISLAND NOT AVBL  
WARROAD FAIR 73 39 29 S9 30.02F  
ROSEAU FAIR 73 36 25 SE9 30.01F  
HALLOCK FAIR 81 37 21 SE20G25 29.92F  
THF RVR FALLS FAIR 76 44 32 S16G22 30.00F  
6HR MIN TEMP: 69; 6HR MAX TEMP: 76;  
 
HALSTAD NOT AVBL  
FOSSTON FAIR 73 39 29 S13 30.01F  
BAUDETTE FAIR 70 31 23 S9 30.06F  
6HR MIN TEMP: 69; 6HR MAX TEMP: 73;  
 
WASKISH FAIR 72 32 23 S5 30.07S  
CROOKSTON FAIR 79 45 29 SE20G25 29.94F  

 
***** WEATHER ACROSS CENTRAL AND WEST MINNESOTA *****  
 
CITY SKY/WX TMP DP RH WIND PRES REMARKS  
BEMIDJI FAIR 73 44 35 S9 30.04F  
6HR MIN TEMP: 67; 6HR MAX TEMP: 74;  
 
PARK RAPIDS FAIR 76 41 28 SE13 30.04F  
6HR MIN TEMP: 69; 6HR MAX TEMP: 76;  
 
WADENA FAIR 75 48 38 SE12 30.02F  
DETROIT LAKES FAIR 75 45 33 SE15 30.01F  
MOORHEAD FAIR 81 39 22 S20G25 29.96F  
FERGUS FALLS FAIR 77 48 36 S18G25 29.96F  
ELBOW LAKE FAIR 76 51 40 S20G25 30.01F  
6HR MIN TEMP: 74; 6HR MAX TEMP: 78;  
 
MORRIS MN FAIR 75 45 33 S17G25 30.02F  
STAPLES FAIR 73 41 31 SE10G16 30.05F  
WHEATON FAIR 75 48 38 SE16G25 29.99F  

 
***** WEATHER ELSEWHERE ACROSS MINNESOTA *****  
 
CITY SKY/WX TMP DP RH WIND PRES REMARKS  
DULUTH FAIR 70 31 23 SW12 30.13F  
6HR MIN TEMP: 67; 6HR MAX TEMP: 72;  
 
INTRNTL FALLS FAIR 71 34 25 S7 30.07F  
6HR MIN TEMP: 69; 6HR MAX TEMP: 74;  
 
ELY FAIR 70 30 23 W7 30.11F  
CLOQUET FAIR 70 25 18 S8 30.13S  
BRAINERD FAIR 75 42 30 SE9G18 30.09F  
6HR MIN TEMP: 71; 6HR MAX TEMP: 77;  
 
HIBBING FAIR 70 24 17 W8 30.10F  
6HR MIN TEMP: 65; 6HR MAX TEMP: 71;  
 
ALEXANDRIA FAIR 76 48 37 SE16 30.05F  
6HR MIN TEMP: 72; 6HR MAX TEMP: 79;  
 
SAINT CLOUD FAIR 74 45 35 SE10G21 30.07F  
6HR MIN TEMP: 70; 6HR MAX TEMP: 77;  
 
MINNEAPOLIS FAIR 76 48 37 SE10 30.10F  
6HR MIN TEMP: 69; 6HR MAX TEMP: 77;  
 

 
 
***** WEATHER ACROSS SOUTH DAKOTA *****  
 
CITY SKY/WX TMP DP RH WIND PRES REMARKS  
SIOUX FALLS FAIR 78 58 49 S21G31 29.98F  
6HR MIN TEMP: 72; 6HR MAX TEMP: 80;  
 
BROOKINGS FAIR 75 57 53 MISG 29.99F  
WATERTOWN FAIR 75 57 53 S15G32 29.97F  
6HR MIN TEMP: 70; 6HR MAX TEMP: 77;  
 
HURON FAIR 78 61 55 S13G29 29.90F  
6HR MIN TEMP: 73; 6HR MAX TEMP: 79;  
 
SISSETON N/A 77 53 43 SE20 29.95F  
ABERDEEN PTSUNNY 78 58 49 S20G31 29.91F  
6HR MIN TEMP: 76; 6HR MAX TEMP: 82;  
 
MITCHELL LGT RAIN 80 60 50 SE20G30 29.91F  
PIERRE FAIR 80 64 58 SE17G25 29.81F  
6HR MIN TEMP: 71; 6HR MAX TEMP: 80;  
 
MOBRIDGE FAIR 79 60 52 SE18 29.81F  
RAPID CITY FAIR 79 64 60 SE9 29.80F  
6HR MIN TEMP: 73; 6HR MAX TEMP: 84; 6HR PCP: TRACE;  
 

 
 
***** SOME WEATHER IN NEARBY STATES *****  
 
CITY SKY/WX TMP DP RH WIND PRES REMARKS  
GLASGOW MT FAIR 87 50 27 NW24G31 29.64R  
6HR MIN TEMP: 78; 6HR MAX TEMP: 89;  
 
GREAT FALLS MT FAIR 76 37 24 W21G41 29.77S  
6HR MIN TEMP: 72; 6HR MAX TEMP: 78;  
 
CHEYENNE WY FAIR 76 44 32 S6G17 30.09R  
6HR MIN TEMP: 76; 6HR MAX TEMP: 87;  
 
SCOTTSBLUFF NE FAIR 79 50 36 SW15 29.94R  
6HR MIN TEMP: 78; 6HR MAX TEMP: 92;  
 
OMAHA NE FAIR 76 59 55 SE21G28 30.04F  
6HR MIN TEMP: 72; 6HR MAX TEMP: 78;  
 
DES MOINES IA FAIR 72 53 51 S14G23 30.14F  
6HR MIN TEMP: 67; 6HR MAX TEMP: 73;  
 
DAVENPORT IA FAIR 74 37 26 CALM 30.23F  
6HR MIN TEMP: 70; 6HR MAX TEMP: 76;  
 
CHICAGO IL FAIR 67 39 35 E10 30.26F  
6HR MIN TEMP: 63; 6HR MAX TEMP: 69;  
 
EAU CLAIRE WI FAIR 72 42 34 S5 30.16F  
6HR MIN TEMP: 68; 6HR MAX TEMP: 73;  
 
LA CROSSE WI FAIR 74 47 38 S7 30.18F  
6HR MIN TEMP: 69; 6HR MAX TEMP: 75;  
 

 
 
***** SOME NATIONAL WEATHER *****  
 
CITY SKY/WX TMP DP RH WIND PRES REMARKS  
LA GUARDIA NY FAIR 66 34 30 NW16 30.08R  
 
CLICK HERE TO GO TO PREVIOUS BULLETINS.

The Nexlab ND Page
The Nexlab MN Page Main Text Page